| time (UTC) | temp C | wind direction | speed KPH | gust KPH | rain 1hr cm | rain 24hr cm | rain mn cm | humidity % | barometer mb |
| 20260506211841 | 18 | 40 | 1.6 | 12.9 | 0.00 | 0.00 | 0.00 | 39 | 1013.5 |
| 20260506211340 | 18 | 211 | 1.6 | 11.3 | 0.00 | 0.00 | 0.00 | 38 | 1013.5 |
| 20260506210841 | 18 | 196 | 1.6 | 11.3 | 0.00 | 0.00 | 0.00 | 39 | 1013.5 |
| 20260506210341 | 17 | 300 | 1.6 | 17.7 | 0.00 | 0.00 | 0.00 | 38 | 1013.6 |
| 20260506205341 | 17 | 148 | 3.2 | 12.9 | 0.00 | 0.00 | 0.00 | 38 | 1013.7 |
| 20260506204837 | 17 | 325 | 0.0 | 16.1 | 0.00 | 0.00 | 0.00 | 38 | 1013.8 |
| 20260506204337 | 17 | 150 | 1.6 | 16.1 | 0.00 | 0.00 | 0.00 | 39 | 1013.8 |
| 20260506203837 | 17 | 155 | 3.2 | 14.5 | 0.00 | 0.00 | 0.00 | 39 | 1014.0 |
| 20260506203337 | 17 | 126 | 6.4 | 14.5 | 0.00 | 0.00 | 0.00 | 38 | 1014.0 |
| 20260506203104 | 17 | 180 | 4.8 | 14.5 | 0.00 | 0.00 | 0.00 | 39 | 1014.1 |
| 20260506202337 | 17 | 144 | 1.6 | 16.1 | 0.00 | 0.00 | 0.00 | 38 | 1014.0 |
| 20260506201833 | 17 | 169 | 1.6 | 16.1 | 0.00 | 0.00 | 0.00 | 42 | 1014.0 |
| 20260506201328 | 16 | 304 | 1.6 | 14.5 | 0.00 | 0.00 | 0.00 | 39 | 1014.3 |
| 20260506200823 | 16 | 192 | 1.6 | 16.1 | 0.00 | 0.00 | 0.00 | 40 | 1014.3 |
| 20260506200322 | 16 | 263 | 3.2 | 16.1 | 0.00 | 0.00 | 0.00 | 39 | 1014.4 |
| 20260506195823 | 16 | 90 | 3.2 | 16.1 | 0.00 | 0.00 | 0.00 | 39 | 1014.5 |
| 20260506195541 | 16 | 199 | 1.6 | 17.7 | 0.00 | 0.00 | 0.00 | 39 | 1014.6 |
| 20260506194813 | 16 | 117 | 6.4 | 17.7 | 0.00 | 0.00 | 0.00 | 38 | 1014.5 |
| 20260506194313 | 16 | 211 | 3.2 | 12.9 | 0.00 | 0.00 | 0.00 | 40 | 1014.7 |
| 20260506193813 | 16 | 277 | 1.6 | 16.1 | 0.00 | 0.00 | 0.00 | 40 | 1014.7 |
| 20260506193303 | 16 | 335 | 1.6 | 19.3 | 0.00 | 0.00 | 0.00 | 41 | 1014.9 |
| 20260506192804 | 16 | 215 | 3.2 | 19.3 | 0.00 | 0.00 | 0.00 | 40 | 1015.0 |
| 20260506192307 | 15 | 174 | 1.6 | 14.5 | 0.00 | 0.00 | 0.00 | 40 | 1015.0 |
| 20260506191757 | 15 | 306 | 1.6 | 14.5 | 0.00 | 0.00 | 0.00 | 39 | 1015.1 |
| 20260506191255 | 15 | 105 | 4.8 | 12.9 | 0.00 | 0.00 | 0.00 | 39 | 1015.1 |
| 20260506190755 | 15 | 317 | 0.0 | 16.1 | 0.00 | 0.00 | 0.00 | 42 | 1015.1 |
| 20260506190249 | 15 | 352 | 3.2 | 16.1 | 0.00 | 0.00 | 0.00 | 42 | 1015.3 |
| 20260506185750 | 15 | 254 | 3.2 | 14.5 | 0.00 | 0.00 | 0.00 | 40 | 1015.3 |
| 20260506185250 | 15 | 240 | 3.2 | 11.3 | 0.00 | 0.00 | 0.00 | 41 | 1015.4 |
| 20260506184750 | 15 | 348 | 0.0 | 8.0 | 0.00 | 0.00 | 0.00 | 40 | 1015.5 |
| 20260506184251 | 15 | 312 | 3.2 | 8.0 | 0.00 | 0.00 | 0.00 | 42 | 1015.6 |
| 20260506184018 | 14 | 259 | 0.0 | 11.3 | 0.00 | 0.00 | 0.00 | 43 | 1015.7 |
| 20260506183250 | 14 | 211 | 1.6 | 11.3 | 0.00 | 0.00 | 0.00 | 41 | 1015.8 |
| 20260506182746 | 14 | 248 | 0.0 | 12.9 | 0.00 | 0.00 | 0.00 | 41 | 1015.9 |
| 20260506182241 | 14 | 348 | 4.8 | 12.9 | 0.00 | 0.00 | 0.00 | 41 | 1015.9 |
| 20260506182002 | 14 | 13 | 3.2 | 12.9 | 0.00 | 0.00 | 0.00 | 41 | 1016.0 |
| 20260506181241 | 14 | 257 | 3.2 | 11.3 | 0.00 | 0.00 | 0.00 | 41 | 1016.2 |
| 20260506180743 | 14 | 297 | 3.2 | 11.3 | 0.00 | 0.00 | 0.00 | 40 | 1016.2 |
| 20260506180242 | 14 | 0 | 1.6 | 8.0 | 0.00 | 0.00 | 0.00 | 41 | 1016.2 |
| 20260506180005 | 14 | 18 | 3.2 | 8.0 | 0.00 | 0.00 | 0.00 | 42 | 1016.3 |
| 20260506175237 | 13 | 320 | 0.0 | 8.0 | 0.00 | 0.00 | 0.00 | 41 | 1016.3 |
| 20260506174737 | 13 | 203 | 1.6 | 9.7 | 0.00 | 0.00 | 0.00 | 41 | 1016.5 |
| 20260506174237 | 13 | 19 | 1.6 | 9.7 | 0.00 | 0.00 | 0.00 | 43 | 1016.6 |
| 20260506173733 | 12 | 9 | 3.2 | 4.8 | 0.00 | 0.00 | 0.00 | 44 | 1016.7 |
| 20260506173227 | 12 | 15 | 0.0 | 6.4 | 0.00 | 0.00 | 0.00 | 44 | 1016.7 |
| 20260506172728 | 12 | 311 | 1.6 | 6.4 | 0.00 | 0.00 | 0.00 | 45 | 1016.8 |
| 20260506172228 | 12 | 177 | 1.6 | 4.8 | 0.00 | 0.00 | 0.00 | 44 | 1016.8 |
| 20260506171728 | 11 | 132 | 1.6 | 8.0 | 0.00 | 0.00 | 0.00 | 48 | 1016.9 |
| 20260506171223 | 11 | 211 | 0.0 | 8.0 | 0.00 | 0.00 | 0.00 | 46 | 1016.8 |
| 20260506170723 | 11 | 162 | 1.6 | 6.4 | 0.00 | 0.00 | 0.00 | 47 | 1016.9 |
| 20260506170703 | 11 | 119 | 0.0 | 8.0 | 0.00 | 0.00 | 0.00 | 46 | 1017.0 |
| 20260506165718 | 11 | 168 | 0.0 | 8.0 | 0.00 | 0.00 | 0.00 | 48 | 1017.0 |
| 20260506165219 | 10 | 125 | 1.6 | 8.0 | 0.00 | 0.00 | 0.00 | 48 | 1017.0 |
| 20260506164722 | 10 | 143 | 1.6 | 8.0 | 0.00 | 0.00 | 0.00 | 49 | 1017.3 |
| 20260506164217 | 10 | 168 | 3.2 | 8.0 | 0.00 | 0.00 | 0.00 | 49 | 1017.3 |
| 20260506163715 | 10 | 145 | 3.2 | 6.4 | 0.00 | 0.00 | 0.00 | 51 | 1017.4 |
| 20260506163214 | 10 | 142 | 0.0 | 6.4 | 0.00 | 0.00 | 0.00 | 53 | 1017.5 |
| 20260506162709 | 9 | 148 | 1.6 | 6.4 | 0.00 | 0.00 | 0.00 | 53 | 1017.5 |
| 20260506162209 | 9 | 112 | 1.6 | 8.0 | 0.00 | 0.00 | 0.00 | 53 | 1017.5 |
| 20260506161710 | 9 | 175 | 1.6 | 9.7 | 0.00 | 0.00 | 0.00 | 53 | 1017.6 |
| 20260506161434 | 8 | 102 | 0.0 | 9.7 | 0.00 | 0.00 | 0.00 | 55 | 1017.7 |
| 20260506160713 | 8 | 225 | 1.6 | 6.4 | 0.00 | 0.00 | 0.00 | 55 | 1017.7 |
| 20260506160206 | 8 | 96 | 0.0 | 6.4 | 0.00 | 0.00 | 0.00 | 56 | 1017.7 |
| 20260506155705 | 8 | 100 | 1.6 | 6.4 | 0.00 | 0.00 | 0.00 | 57 | 1017.9 |
| 20260506155200 | 8 | 120 | 0.0 | 6.4 | 0.00 | 0.00 | 0.00 | 58 | 1017.9 |
| 20260506154701 | 7 | 80 | 1.6 | 6.4 | 0.00 | 0.00 | 0.00 | 61 | 1018.1 |
| 20260506154201 | 7 | 102 | 0.0 | 6.4 | 0.00 | 0.00 | 0.00 | 59 | 1017.9 |
| 20260506153942 | 7 | 82 | 0.0 | 4.8 | 0.00 | 0.00 | 0.00 | 61 | 1017.9 |
| 20260506153156 | 7 | 115 | 0.0 | 6.4 | 0.00 | 0.00 | 0.00 | 62 | 1018.1 |
| 20260506152654 | 6 | 78 | 1.6 | 6.4 | 0.00 | 0.00 | 0.00 | 62 | 1018.2 |
| 20260506152152 | 6 | 134 | 0.0 | 4.8 | 0.00 | 0.00 | 0.00 | 62 | 1018.2 |
| 20260506151651 | 6 | 110 | 0.0 | 4.8 | 0.00 | 0.00 | 0.00 | 66 | 1018.1 |
| 20260506151147 | 6 | 146 | 0.0 | 4.8 | 0.00 | 0.00 | 0.00 | 66 | 1018.2 |
| 20260506150700 | 6 | 88 | 0.0 | 4.8 | 0.00 | 0.00 | 0.00 | 68 | 1018.3 |
| 20260506150403 | 5 | 102 | 0.0 | 4.8 | 0.00 | 0.00 | 0.00 | 68 | 1018.4 |
| 20260506145637 | 5 | 139 | 0.0 | 6.4 | 0.00 | 0.00 | 0.00 | 69 | 1018.4 |
| 20260506145133 | 5 | 139 | 0.0 | 6.4 | 0.00 | 0.00 | 0.00 | 73 | 1018.5 |
| 20260506144857 | 5 | 132 | 0.0 | 3.2 | 0.00 | 0.00 | 0.00 | 70 | 1018.5 |
| 20260506144133 | 5 | 123 | 0.0 | 3.2 | 0.00 | 0.00 | 0.00 | 71 | 1018.5 |
| 20260506143623 | 4 | 123 | 0.0 | 4.8 | 0.00 | 0.00 | 0.00 | 74 | 1018.6 |
| 20260506143341 | 4 | 124 | 0.0 | 4.8 | 0.00 | 0.00 | 0.00 | 73 | 1018.6 |
| 20260506142613 | 4 | 123 | 0.0 | 3.2 | 0.00 | 0.00 | 0.00 | 76 | 1018.6 |
| 20260506142113 | 3 | 124 | 0.0 | 3.2 | 0.00 | 0.00 | 0.00 | 76 | 1018.7 |
| 20260506141835 | 3 | 124 | 0.0 | 1.6 | 0.00 | 0.00 | 0.00 | 78 | 1018.7 |
| 20260506141109 | 3 | 124 | 0.0 | 0.0 | 0.00 | 0.00 | 0.00 | 77 | 1018.7 |
| 20260506140559 | 2 | 124 | 0.0 | 0.0 | 0.00 | 0.00 | 0.00 | 80 | 1018.7 |
| 20260506140319 | 2 | 124 | 0.0 | 0.0 | 0.00 | 0.00 | 0.00 | 80 | 1018.7 |
| 20260506135548 | 2 | 124 | 0.0 | 0.0 | 0.00 | 0.00 | 0.00 | 83 | 1018.8 |
| 20260506135309 | 1 | 124 | 0.0 | 0.0 | 0.00 | 0.00 | 0.00 | 88 | 1018.8 |
| 20260506134551 | 1 | 124 | 0.0 | 0.0 | 0.00 | 0.00 | 0.00 | 90 | 1018.8 |
| 20260506134046 | 0 | 124 | 0.0 | 0.0 | 0.00 | 0.00 | 0.00 | 91 | 1018.7 |
| 20260506133542 | 0 | 124 | 0.0 | 0.0 | 0.00 | 0.00 | 0.00 | 92 | 1018.7 |
| 20260506133037 | 0 | 124 | 0.0 | 0.0 | 0.00 | 0.00 | 0.00 | 91 | 1018.8 |
| 20260506132529 | 0 | 124 | 0.0 | 0.0 | 0.00 | 0.00 | 0.00 | 91 | 1018.7 |
| 20260506132025 | 0 | 124 | 0.0 | 0.0 | 0.00 | 0.00 | 0.00 | 90 | 1018.7 |
| 20260506131525 | 0 | 124 | 0.0 | 0.0 | 0.00 | 0.00 | 0.00 | 90 | 1018.7 |
| 20260506131025 | -1 | 124 | 0.0 | 0.0 | 0.00 | 0.00 | 0.00 | 90 | 1018.6 |
| 20260506130523 | -1 | 124 | 0.0 | 0.0 | 0.00 | 0.00 | 0.00 | 90 | 1018.7 |
| 20260506130020 | -1 | 124 | 0.0 | 0.0 | 0.00 | 0.00 | 0.00 | 90 | 1018.8 |
| 20260506125520 | -1 | 124 | 0.0 | 0.0 | 0.00 | 0.00 | 0.00 | 90 | 1018.7 |
| 20260506125015 | -1 | 124 | 0.0 | 0.0 | 0.00 | 0.00 | 0.00 | 89 | 1018.7 |
| 20260506124509 | -1 | 124 | 0.0 | 0.0 | 0.00 | 0.00 | 0.00 | 89 | 1018.7 |
| 20260506124004 | -1 | 124 | 0.0 | 0.0 | 0.00 | 0.00 | 0.00 | 89 | 1018.7 |
| 20260506123501 | -1 | 124 | 0.0 | 0.0 | 0.00 | 0.00 | 0.00 | 89 | 1018.7 |
| 20260506123001 | -1 | 124 | 0.0 | 0.0 | 0.00 | 0.00 | 0.00 | 89 | 1018.8 |
| 20260506122501 | -1 | 124 | 0.0 | 0.0 | 0.00 | 0.00 | 0.00 | 89 | 1018.7 |
| 20260506122004 | -1 | 124 | 0.0 | 0.0 | 0.00 | 0.00 | 0.00 | 88 | 1018.6 |
| 20260506121500 | -1 | 124 | 0.0 | 0.0 | 0.00 | 0.00 | 0.00 | 88 | 1018.7 |
| 20260506120956 | -1 | 124 | 0.0 | 0.0 | 0.00 | 0.00 | 0.00 | 88 | 1018.7 |
| 20260506120457 | -1 | 124 | 0.0 | 0.0 | 0.00 | 0.00 | 0.00 | 88 | 1018.7 |
| 20260506115957 | -1 | 124 | 0.0 | 0.0 | 0.00 | 0.00 | 0.00 | 88 | 1018.7 |
| 20260506115500 | -1 | 124 | 0.0 | 0.0 | 0.00 | 0.00 | 0.00 | 88 | 1018.7 |
| 20260506114953 | -1 | 124 | 0.0 | 0.0 | 0.00 | 0.00 | 0.00 | 88 | 1018.7 |
| 20260506114452 | -1 | 124 | 0.0 | 0.0 | 0.00 | 0.00 | 0.00 | 88 | 1018.7 |
| 20260506113952 | -1 | 124 | 0.0 | 0.0 | 0.00 | 0.00 | 0.00 | 88 | 1018.7 |
| 20260506113938 | -1 | 124 | 0.0 | 0.0 | 0.00 | 0.00 | 0.00 | 88 | 1018.7 |
| 20260506113214 | -1 | 124 | 0.0 | 0.0 | 0.00 | 0.00 | 0.00 | 88 | 1018.7 |
| 20260506112928 | -1 | 124 | 0.0 | 0.0 | 0.00 | 0.00 | 0.00 | 88 | 1018.8 |
| 20260506111934 | -1 | 124 | 0.0 | 0.0 | 0.00 | 0.00 | 0.00 | 88 | 1018.8 |
| 20260506111429 | -1 | 124 | 0.0 | 0.0 | 0.00 | 0.00 | 0.00 | 88 | 1018.8 |
| 20260506110929 | -1 | 124 | 0.0 | 0.0 | 0.00 | 0.00 | 0.00 | 88 | 1018.8 |
| 20260506110424 | -1 | 124 | 0.0 | 0.0 | 0.00 | 0.00 | 0.00 | 88 | 1018.8 |
| 20260506105926 | -1 | 124 | 0.0 | 0.0 | 0.00 | 0.00 | 0.00 | 87 | 1018.8 |
| 20260506105421 | -1 | 124 | 0.0 | 0.0 | 0.00 | 0.00 | 0.00 | 87 | 1018.8 |
| 20260506104919 | -1 | 124 | 0.0 | 0.0 | 0.00 | 0.00 | 0.00 | 87 | 1018.8 |
| 20260506104417 | -1 | 124 | 0.0 | 0.0 | 0.00 | 0.00 | 0.00 | 87 | 1018.9 |
| 20260506103900 | -1 | 124 | 0.0 | 0.0 | 0.00 | 0.00 | 0.00 | 87 | 1018.8 |
| 20260506103354 | 0 | 124 | 0.0 | 0.0 | 0.00 | 0.00 | 0.00 | 87 | 1018.8 |
| 20260506102854 | 0 | 124 | 0.0 | 0.0 | 0.00 | 0.00 | 0.00 | 87 | 1018.7 |
| 20260506102345 | 0 | 124 | 0.0 | 0.0 | 0.00 | 0.00 | 0.00 | 87 | 1018.7 |
| 20260506101845 | 0 | 124 | 0.0 | 0.0 | 0.00 | 0.00 | 0.00 | 86 | 1018.7 |
| 20260506101340 | 0 | 124 | 0.0 | 0.0 | 0.00 | 0.00 | 0.00 | 86 | 1018.8 |
| 20260506101321 | 0 | 124 | 0.0 | 0.0 | 0.00 | 0.00 | 0.00 | 86 | 1018.8 |
| 20260506100554 | 0 | 124 | 0.0 | 0.0 | 0.00 | 0.00 | 0.00 | 86 | 1018.8 |
| 20260506095830 | 0 | 124 | 0.0 | 0.0 | 0.00 | 0.00 | 0.00 | 86 | 1018.8 |
| 20260506095546 | 0 | 124 | 0.0 | 0.0 | 0.00 | 0.00 | 0.00 | 86 | 1018.9 |
| 20260506095045 | 0 | 124 | 0.0 | 0.0 | 0.00 | 0.00 | 0.00 | 86 | 1018.9 |
| 20260506094321 | 0 | 124 | 0.0 | 0.0 | 0.00 | 0.00 | 0.00 | 86 | 1018.8 |
| 20260506093820 | 0 | 124 | 0.0 | 0.0 | 0.00 | 0.00 | 0.00 | 86 | 1018.9 |
| 20260506093324 | 0 | 124 | 0.0 | 0.0 | 0.00 | 0.00 | 0.00 | 86 | 1018.9 |
| 20260506092822 | 0 | 124 | 0.0 | 0.0 | 0.00 | 0.00 | 0.00 | 86 | 1018.8 |
| 20260506092317 | 0 | 124 | 0.0 | 0.0 | 0.00 | 0.00 | 0.00 | 85 | 1018.8 |
| 20260506091807 | 0 | 124 | 0.0 | 0.0 | 0.00 | 0.00 | 0.00 | 85 | 1018.9 |
| 20260506091304 | 0 | 124 | 0.0 | 0.0 | 0.00 | 0.00 | 0.00 | 85 | 1018.8 |
| 20260506090754 | 0 | 124 | 0.0 | 0.0 | 0.00 | 0.00 | 0.00 | 85 | 1018.8 |
| 20260506090515 | 0 | 124 | 0.0 | 0.0 | 0.00 | 0.00 | 0.00 | 84 | 1018.9 |
| 20260506085752 | 0 | 124 | 0.0 | 0.0 | 0.00 | 0.00 | 0.00 | 84 | 1018.8 |
| 20260506085241 | 0 | 124 | 0.0 | 0.0 | 0.00 | 0.00 | 0.00 | 84 | 1018.8 |
| 20260506085004 | 0 | 124 | 0.0 | 0.0 | 0.00 | 0.00 | 0.00 | 84 | 1018.8 |
| 20260506084242 | 0 | 124 | 0.0 | 0.0 | 0.00 | 0.00 | 0.00 | 84 | 1018.7 |
| 20260506083953 | 0 | 124 | 0.0 | 0.0 | 0.00 | 0.00 | 0.00 | 84 | 1018.8 |
| 20260506083222 | 0 | 124 | 0.0 | 0.0 | 0.00 | 0.00 | 0.00 | 84 | 1018.7 |
| 20260506082937 | 0 | 124 | 0.0 | 0.0 | 0.00 | 0.00 | 0.00 | 84 | 1018.8 |
| 20260506082215 | 0 | 124 | 0.0 | 0.0 | 0.00 | 0.00 | 0.00 | 84 | 1018.7 |
| 20260506081713 | 0 | 124 | 0.0 | 0.0 | 0.00 | 0.00 | 0.00 | 84 | 1018.7 |
| 20260506081648 | 0 | 124 | 0.0 | 0.0 | 0.00 | 0.00 | 0.00 | 84 | 1018.8 |
| 20260506080706 | 0 | 124 | 0.0 | 0.0 | 0.00 | 0.00 | 0.00 | 83 | 1018.8 |
| 20260506080154 | 0 | 124 | 0.0 | 0.0 | 0.00 | 0.00 | 0.00 | 83 | 1018.8 |
| 20260506073125 | 1 | 124 | 0.0 | 0.0 | 0.00 | 0.00 | 0.00 | 83 | 1019.1 |
| 20260506072831 | 1 | 124 | 0.0 | 0.0 | 0.00 | 0.00 | 0.00 | 83 | 1019.1 |
| 20260506072334 | 1 | 124 | 0.0 | 0.0 | 0.00 | 0.00 | 0.00 | 83 | 1019.1 |
| 20260506071609 | 1 | 124 | 0.0 | 0.0 | 0.00 | 0.00 | 0.00 | 89 | 1019.2 |
| 20260506071110 | 1 | 124 | 0.0 | 0.0 | 0.00 | 0.00 | 0.00 | 83 | 1019.1 |
| 20260506070610 | 1 | 124 | 0.0 | 0.0 | 0.00 | 0.00 | 0.00 | 83 | 1019.1 |
| 20260506070110 | 1 | 124 | 0.0 | 0.0 | 0.00 | 0.00 | 0.00 | 82 | 1019.1 |
| 20260506062046 | 1 | 124 | 0.0 | 0.0 | 0.00 | 0.00 | 0.00 | 81 | 1018.9 |
| 20260506061547 | 1 | 124 | 0.0 | 0.0 | 0.00 | 0.00 | 0.00 | 80 | 1018.9 |
| 20260506061042 | 1 | 124 | 0.0 | 0.0 | 0.00 | 0.00 | 0.00 | 80 | 1018.9 |
| 20260506060747 | 1 | 124 | 0.0 | 0.0 | 0.00 | 0.00 | 0.00 | 80 | 1018.8 |
| 20260506050922 | 2 | 124 | 0.0 | 1.6 | 0.00 | 0.00 | 0.00 | 77 | 1018.7 |
| 20260506050910 | 2 | 124 | 0.0 | 1.6 | 0.00 | 0.00 | 0.00 | 77 | 1018.8 |
| 20260506044413 | 2 | 123 | 0.0 | 3.2 | 0.00 | 0.00 | 0.00 | 74 | 1018.8 |
| 20260506043911 | 3 | 124 | 0.0 | 3.2 | 0.00 | 0.00 | 0.00 | 74 | 1018.7 |
| 20260506043408 | 3 | 123 | 0.0 | 3.2 | 0.00 | 0.00 | 0.00 | 73 | 1018.7 |
| 20260506042909 | 3 | 123 | 0.0 | 3.2 | 0.00 | 0.00 | 0.00 | 73 | 1018.8 |
| 20260506042408 | 3 | 124 | 0.0 | 0.0 | 0.00 | 0.00 | 0.00 | 72 | 1018.7 |
| 20260506041908 | 3 | 124 | 0.0 | 0.0 | 0.00 | 0.00 | 0.00 | 71 | 1018.7 |
| 20260506041629 | 3 | 124 | 0.0 | 0.0 | 0.00 | 0.00 | 0.00 | 70 | 1018.8 |
| 20260506040906 | 3 | 124 | 0.0 | 0.0 | 0.00 | 0.00 | 0.00 | 69 | 1018.7 |
| 20260506040400 | 4 | 124 | 0.0 | 0.0 | 0.00 | 0.00 | 0.00 | 69 | 1018.6 |
| 20260506035857 | 4 | 124 | 0.0 | 0.0 | 0.00 | 0.00 | 0.00 | 69 | 1018.6 |
| 20260506035355 | 4 | 124 | 0.0 | 0.0 | 0.00 | 0.00 | 0.00 | 68 | 1018.6 |
| 20260506035117 | 5 | 124 | 0.0 | 0.0 | 0.00 | 0.00 | 0.00 | 66 | 1018.6 |
| 20260506034355 | 5 | 124 | 0.0 | 0.0 | 0.00 | 0.00 | 0.00 | 66 | 1018.7 |
| 20260506033857 | 5 | 124 | 0.0 | 0.0 | 0.00 | 0.00 | 0.00 | 65 | 1018.6 |
| 20260506033350 | 6 | 124 | 0.0 | 0.0 | 0.00 | 0.00 | 0.00 | 63 | 1018.5 |
| 20260506033108 | 6 | 124 | 0.0 | 0.0 | 0.00 | 0.00 | 0.00 | 62 | 1018.5 |
| 20260506032341 | 6 | 124 | 0.0 | 0.0 | 0.00 | 0.00 | 0.00 | 61 | 1018.5 |
| 20260506031841 | 6 | 124 | 0.0 | 0.0 | 0.00 | 0.00 | 0.00 | 59 | 1018.5 |
| 20260506031605 | 7 | 124 | 0.0 | 0.0 | 0.00 | 0.00 | 0.00 | 58 | 1018.5 |
| 20260506030844 | 7 | 124 | 0.0 | 0.0 | 0.00 | 0.00 | 0.00 | 58 | 1018.4 |
| 20260506030341 | 8 | 124 | 0.0 | 0.0 | 0.00 | 0.00 | 0.00 | 57 | 1018.4 |
| 20260506025836 | 8 | 124 | 0.0 | 0.0 | 0.00 | 0.00 | 0.00 | 56 | 1018.3 |
| 20260506025335 | 8 | 124 | 0.0 | 0.0 | 0.00 | 0.00 | 0.00 | 54 | 1018.3 |
| 20260506024832 | 8 | 124 | 0.0 | 0.0 | 0.00 | 0.00 | 0.00 | 53 | 1018.3 |
| 20260506024333 | 9 | 124 | 0.0 | 0.0 | 0.00 | 0.00 | 0.00 | 53 | 1018.2 |
| 20260506023827 | 9 | 124 | 0.0 | 0.0 | 0.00 | 0.00 | 0.00 | 52 | 1018.3 |
| 20260506023553 | 9 | 124 | 0.0 | 0.0 | 0.00 | 0.00 | 0.00 | 48 | 1018.2 |
| 20260506022825 | 9 | 124 | 0.0 | 0.0 | 0.00 | 0.00 | 0.00 | 48 | 1018.2 |
| 20260506022323 | 9 | 124 | 0.0 | 0.0 | 0.00 | 0.00 | 0.00 | 46 | 1018.1 |
| 20260506021823 | 10 | 124 | 0.0 | 0.0 | 0.00 | 0.00 | 0.00 | 46 | 1018.1 |
| 20260506021324 | 10 | 124 | 0.0 | 3.2 | 0.00 | 0.00 | 0.00 | 46 | 1018.1 |
| 20260506021308 | 10 | 124 | 0.0 | 4.8 | 0.00 | 0.00 | 0.00 | 44 | 1018.1 |
| 20260506020326 | 10 | 124 | 0.0 | 4.8 | 0.00 | 0.00 | 0.00 | 45 | 1018.1 |
| 20260506015817 | 10 | 123 | 0.0 | 1.6 | 0.00 | 0.00 | 0.00 | 44 | 1018.1 |
| 20260506015750 | 10 | 124 | 0.0 | 4.8 | 0.00 | 0.00 | 0.00 | 43 | 1018.1 |
| 20260506014804 | 10 | 116 | 0.0 | 4.8 | 0.00 | 0.00 | 0.00 | 44 | 1018.1 |
| 20260506014304 | 10 | 67 | 0.0 | 3.2 | 0.00 | 0.00 | 0.00 | 43 | 1018.1 |
| 20260506014039 | 10 | 137 | 0.0 | 9.7 | 0.00 | 0.00 | 0.00 | 43 | 1017.9 |
| 20260506013304 | 10 | 138 | 1.6 | 9.7 | 0.00 | 0.00 | 0.00 | 42 | 1017.9 |
| 20260506012759 | 10 | 100 | 0.0 | 11.3 | 0.00 | 0.00 | 0.00 | 42 | 1017.9 |
| 20260506012259 | 10 | 130 | 1.6 | 11.3 | 0.00 | 0.00 | 0.00 | 42 | 1018.1 |
| 20260506011800 | 10 | 154 | 1.6 | 9.7 | 0.00 | 0.00 | 0.00 | 42 | 1017.9 |
| 20260506011301 | 10 | 136 | 3.2 | 11.3 | 0.00 | 0.00 | 0.00 | 43 | 1018.1 |
| 20260506010800 | 10 | 153 | 3.2 | 14.5 | 0.00 | 0.00 | 0.00 | 41 | 1018.1 |
| 20260506010301 | 10 | 126 | 1.6 | 14.5 | 0.00 | 0.00 | 0.00 | 42 | 1018.1 |
| 20260506005755 | 11 | 53 | 3.2 | 12.9 | 0.00 | 0.00 | 0.00 | 40 | 1018.1 |
| 20260506005251 | 11 | 127 | 1.6 | 11.3 | 0.00 | 0.00 | 0.00 | 39 | 1018.1 |
| 20260506004751 | 11 | 102 | 6.4 | 14.5 | 0.00 | 0.00 | 0.00 | 39 | 1018.1 |
| 20260506004250 | 11 | 345 | 3.2 | 16.1 | 0.00 | 0.00 | 0.00 | 39 | 1018.1 |
| 20260506003753 | 11 | 132 | 4.8 | 16.1 | 0.00 | 0.00 | 0.00 | 38 | 1018.1 |
| 20260506003513 | 12 | 128 | 1.6 | 14.5 | 0.00 | 0.00 | 0.00 | 38 | 1018.1 |
| 20260506002751 | 12 | 107 | 4.8 | 14.5 | 0.00 | 0.00 | 0.00 | 37 | 1018.1 |
| 20260506002247 | 12 | 49 | 4.8 | 14.5 | 0.00 | 0.00 | 0.00 | 37 | 1018.1 |
| 20260506001741 | 12 | 115 | 6.4 | 14.5 | 0.00 | 0.00 | 0.00 | 38 | 1018.1 |
| 20260506001241 | 12 | 134 | 3.2 | 14.5 | 0.00 | 0.00 | 0.00 | 36 | 1018.2 |
| 20260506000742 | 12 | 152 | 1.6 | 16.1 | 0.00 | 0.00 | 0.00 | 38 | 1018.2 |
| 20260506000241 | 12 | 188 | 3.2 | 16.1 | 0.00 | 0.00 | 0.00 | 37 | 1018.3 |
| 20260505235742 | 12 | 346 | 1.6 | 6.4 | 0.00 | 0.00 | 0.00 | 38 | 1018.2 |
| 20260505235245 | 12 | 182 | 0.0 | 12.9 | 0.00 | 0.00 | 0.00 | 36 | 1018.3 |
| 20260505234738 | 12 | 113 | 4.8 | 12.9 | 0.00 | 0.00 | 0.00 | 35 | 1018.3 |
| 20260505234232 | 12 | 100 | 3.2 | 16.1 | 0.00 | 0.00 | 0.00 | 35 | 1018.3 |
| 20260505233733 | 12 | 126 | 4.8 | 16.1 | 0.00 | 0.00 | 0.00 | 34 | 1018.2 |
| 20260505233233 | 12 | 90 | 1.6 | 11.3 | 0.00 | 0.00 | 0.00 | 35 | 1018.3 |
| 20260505232734 | 12 | 125 | 3.2 | 19.3 | 0.00 | 0.00 | 0.00 | 36 | 1018.4 |
| 20260505232234 | 12 | 95 | 3.2 | 19.3 | 0.00 | 0.00 | 0.00 | 35 | 1018.4 |
| 20260505231728 | 12 | 109 | 3.2 | 17.7 | 0.00 | 0.00 | 0.00 | 35 | 1018.4 |
| 20260505231228 | 12 | 141 | 1.6 | 17.7 | 0.00 | 0.00 | 0.00 | 35 | 1018.3 |
| 20260505230729 | 12 | 74 | 6.4 | 16.1 | 0.00 | 0.00 | 0.00 | 34 | 1018.3 |
| 20260505230229 | 12 | 94 | 3.2 | 20.9 | 0.00 | 0.00 | 0.00 | 34 | 1018.4 |
| 20260505225729 | 12 | 155 | 3.2 | 20.9 | 0.00 | 0.00 | 0.00 | 34 | 1018.3 |
| 20260505225229 | 12 | 143 | 6.4 | 17.7 | 0.00 | 0.00 | 0.00 | 34 | 1018.4 |
| 20260505224730 | 12 | 75 | 3.2 | 17.7 | 0.00 | 0.00 | 0.00 | 34 | 1018.5 |
| 20260505224228 | 12 | 111 | 1.6 | 16.1 | 0.00 | 0.00 | 0.00 | 36 | 1018.4 |
| 20260505223724 | 12 | 44 | 3.2 | 29.0 | 0.00 | 0.00 | 0.00 | 35 | 1018.4 |
| 20260505223225 | 12 | 5 | 3.2 | 29.0 | 0.00 | 0.00 | 0.00 | 36 | 1018.5 |
| 20260505222725 | 12 | 113 | 3.2 | 14.5 | 0.00 | 0.00 | 0.00 | 34 | 1018.5 |
| 20260505222225 | 12 | 103 | 1.6 | 20.9 | 0.00 | 0.00 | 0.00 | 34 | 1018.4 |
| 20260505221726 | 12 | 330 | 3.2 | 20.9 | 0.00 | 0.00 | 0.00 | 36 | 1018.5 |
| 20260505221225 | 12 | 151 | 4.8 | 19.3 | 0.00 | 0.00 | 0.00 | 34 | 1018.5 |
| 20260505220720 | 12 | 333 | 8.0 | 19.3 | 0.00 | 0.00 | 0.00 | 33 | 1018.6 |
| 20260505220216 | 12 | 144 | 3.2 | 14.5 | 0.00 | 0.00 | 0.00 | 35 | 1018.6 |
| 20260505215716 | 12 | 102 | 1.6 | 11.3 | 0.00 | 0.00 | 0.00 | 35 | 1018.5 |
| 20260505215219 | 12 | 138 | 4.8 | 17.7 | 0.00 | 0.00 | 0.00 | 33 | 1018.6 |
| 20260505214716 | 12 | 123 | 3.2 | 17.7 | 0.00 | 0.00 | 0.00 | 37 | 1018.6 |
| 20260505214216 | 11 | 86 | 1.6 | 12.9 | 0.00 | 0.00 | 0.00 | 36 | 1018.5 |
| 20260505213712 | 11 | 109 | 3.2 | 17.7 | 0.00 | 0.00 | 0.00 | 36 | 1018.7 |
| 20260505213211 | 12 | 136 | 9.7 | 20.9 | 0.00 | 0.00 | 0.00 | 35 | 1018.8 |
| 20260505212712 | 12 | 33 | 6.4 | 20.9 | 0.00 | 0.00 | 0.00 | 35 | 1018.7 |
| 20260505212212 | 11 | 173 | 4.8 | 14.5 | 0.00 | 0.00 | 0.00 | 39 | 1018.8 |